Change the Weather History Date:

Tuesday, December 24, 2013

  Actual Average Record
Temperature  
Mean Temperature 65 °F 55 °F  
Max Temperature 81 °F 66 °F 88 °F (1964)
Min Temperature 48 °F 44 °F 24 °F (1953)
Degree Days  
Heating Degree Days 0 10  
Month to date heating degree days 195 223  
Since 1 July heating degree days 256 319  
Cooling Degree Days 0 0  
Month to date cooling degree days 1 0  
Year to date cooling degree days 4507 4137  
Growing Degree Days 15 (Base 50)    
Moisture  
Dew Point 32 °F    
Average Humidity 30    
Maximum Humidity 42    
Minimum Humidity 18    
Precipitation  
Precipitation 0.00 in 0.03 in 0.44 in (1959)
Month to date precipitation T 0.57  
Year to date precipitation 2.23 5.43  
Since 1 July precipitation 1.26 2.49  
Snow  
Snow 0.00 in - - ()
Month to date snowfall 0.0  
Year to date snowfall 0.0  
Since 1 July snowfall 0.0  
Snow Depth 0.00 in    
Sea Level Pressure  
Sea Level Pressure 30.21 in    
Wind  
Wind Speed 5 mph (NW)    
Max Wind Speed 8 mph    
Max Gust Speed 12 mph    
Visibility 10 miles    
Events      
T = Trace of Precipitation, MM = Missing Value Source: NWS Daily Summary

Daily Weather History Graph

Daily Weather History Graph

Search for Another Location

Airport or City:

Trip Planner

Search our weather history database for the weather conditions in past years. The results will help you decide how hot, cold, wet, or windy it might be!

Date:

Astronomy

Dec. 24, 2013 Rise Set
Actual Time 6:48 AM PST 4:43 PM PST
Civil Twilight 6:20 AM PST 5:10 PM PST
Nautical Twilight 5:49 AM PST 5:42 PM PST
Astronomical Twilight 5:19 AM PST 6:12 PM PST
Moon 11:36 PM PST (12/24) 11:02 AM PST (12/24)
Length of Visible Light 10h 49m
Length of Day
9h 54m
Waning Gibbous, 57% of the Moon is Illuminated
Dec 24
Waning Gibbous
Dec 25
Last Quarter
Jan 1
New
Jan 7
First Quarter
Jan 15
Full

Hourly Weather History & Observations

Time (PST) Temp. Dew Point Humidity Pressure Visibility Wind Dir Wind Speed Gust Speed Precip Events Conditions
12:53 AM 54.0 °F 28.0 °F 37% 30.26 in 10.0 mi Calm Calm - N/A   Clear
1:53 AM 50.0 °F 28.0 °F 43% 30.26 in 10.0 mi NNW 8.1 mph - N/A   Clear
2:53 AM 52.0 °F 28.0 °F 40% 30.25 in 10.0 mi NW 9.2 mph - N/A   Clear
3:53 AM 51.1 °F 28.9 °F 43% 30.25 in 10.0 mi NW 3.5 mph - N/A   Clear
4:53 AM 51.1 °F 28.9 °F 43% 30.23 in 10.0 mi North 5.8 mph - N/A   Clear
5:53 AM 55.0 °F 28.0 °F 35% 30.23 in 10.0 mi Variable 3.5 mph - N/A   Clear
6:53 AM 51.1 °F - N/A% 30.24 in 10.0 mi NW 5.8 mph - N/A   Clear
7:53 AM 57.0 °F - N/A% 30.25 in 10.0 mi West 3.5 mph - N/A   Clear
8:53 AM 63.0 °F - N/A% 30.26 in 10.0 mi Calm Calm - N/A   Clear
9:53 AM 66.9 °F - N/A% 30.26 in 10.0 mi Calm Calm - N/A   Clear
10:53 AM 71.1 °F 34.0 °F 26% 30.23 in 10.0 mi SE 4.6 mph - N/A   Unknown
11:53 AM 75.0 °F 35.1 °F 23% 30.19 in 10.0 mi ESE 5.8 mph - N/A   Unknown
12:53 PM 78.1 °F 36.0 °F 22% 30.15 in 10.0 mi ESE 6.9 mph - N/A   Clear
1:53 PM 80.1 °F 34.0 °F 19% 30.14 in 10.0 mi SE 5.8 mph - N/A   Clear
2:53 PM 79.0 °F 34.0 °F 20% 30.14 in 10.0 mi SSE 4.6 mph - N/A   Clear
3:53 PM 79.0 °F 34.0 °F 20% 30.14 in 10.0 mi Calm Calm - N/A   Clear
4:53 PM 73.9 °F 33.1 °F 22% 30.14 in 10.0 mi WNW 6.9 mph - N/A   Clear
5:53 PM 69.1 °F 34.0 °F 27% 30.17 in 10.0 mi Calm Calm - N/A   Clear
6:53 PM 66.9 °F 34.0 °F 30% 30.17 in 10.0 mi Calm Calm - N/A   Clear
7:53 PM 66.9 °F 30.9 °F 26% 30.18 in 9.0 mi NW 5.8 mph - N/A   Clear
8:53 PM 72.0 °F 30.9 °F 22% 30.20 in 10.0 mi WNW 9.2 mph - N/A   Clear
9:53 PM 66.0 °F 30.9 °F 27% 30.22 in 10.0 mi North 9.2 mph - N/A   Clear
10:53 PM 63.0 °F 32.0 °F 31% 30.22 in 10.0 mi WSW 6.9 mph - N/A   Clear
11:53 PM 69.1 °F 30.9 °F 24% 30.23 in 10.0 mi NNW 16.1 mph - N/A   Clear